Location: Stockholm
(59.3293°N, 18.0686°E)
Time: 14:45:42
(UTC+02:00)

Amateur Radio Satellites - All Passes

Search period start: 30 March 2017 14:15
Search period end: 31 March 2017 14:15
Location: Stockholm, 59.3293°N, 18.0686°E

Satellite Date Start Highest point End Downlink Frequencies (MHz)
Time Altitude Azimuth
RS-15 30 Mar 14:20:20 14:32:37 85° 141° (SE) 14:45:02 29.354- 29.394
SO-50 30 Mar 14:23:50 14:27:41 27° 124° (SE) 14:31:31 436.795
Oscar 19 30 Mar 14:33:38 14:37:42 23° 271° (W) 14:41:48 437.125/150
UKube-1 30 Mar 14:43:10 14:47:32 75° 290° (WNW) 14:51:51 .
BEESAT 30 Mar 14:46:02 14:49:36 21° 88° (E) 14:53:10 436.000
VELOX 1 30 Mar 14:48:13 14:52:12 32° 302° (WNW) 14:56:09 145.980
ITAMSAT 1 30 Mar 14:48:21 14:53:36 89° 251° (WSW) 14:58:53 435.822/435.867
PCSat 30 Mar 14:50:04 14:55:15 42° 15° (NNE) 15:00:25 145.827
HO-68 30 Mar 14:54:05 14:58:04 16° 11° (NNE) 15:02:04 435.675
SPROUT 30 Mar 15:01:41 15:05:16 26° 304° (NW) 15:08:50 437.525
ITUPSAT 1 30 Mar 15:04:50 15:08:54 27° 92° (E) 15:12:56 437.325
AO-7 30 Mar 15:05:27 15:13:48 77° 249° (WSW) 15:22:10 .
50 SAT 30 Mar 15:06:19 15:09:03 21° 303° (WNW) 15:11:47 437.505
Gurwin Techsat 1B 30 Mar 15:21:49 15:25:27 18° 276° (W) 15:29:04 435.225
CUTE-I 30 Mar 15:30:47 15:34:15 18° 40° (NE) 15:37:43 437.470
ESTCUBE 1 30 Mar 15:32:18 15:33:16 11° 323° (NW) 15:34:13 437.505/2401.250
DX 1 30 Mar 15:48:04 15:51:33 23° 308° (NW) 15:55:00 434.975-435.025
DOVE 4 30 Mar 15:53:58 15:57:54 23° 49° (NE) 16:01:59 437.250
SO-50 30 Mar 16:03:07 16:07:45 88° 145° (SE) 16:12:20 436.795
MOZHAYETS 4 30 Mar 16:03:18 16:07:38 40° 97° (E) 16:11:56
YUBILEINY 30 Mar 16:07:50 16:15:17 30° 45° (NE) 16:22:41 435.215
XW-2F 30 Mar 16:14:25 16:16:53 17° 53° (NE) 16:19:20 145.980 - 146.000
UKube-1 30 Mar 16:19:59 16:22:57 18° 312° (NW) 16:25:55 .
LilacSat-2 30 Mar 16:22:59 16:25:49 20° 55° (NE) 16:28:40 437.200
BEESAT 30 Mar 16:23:14 16:28:02 86° 291° (WNW) 16:32:49 436.000
NUDT-PHONESAT 30 Mar 16:27:11 16:29:46 18° 54° (NE) 16:32:21 437.300
ITAMSAT 1 30 Mar 16:29:51 16:33:49 21° 272° (W) 16:37:48 435.822/435.867
RS-15 30 Mar 16:33:41 16:46:03 70° 352° (N) 16:58:23 29.354- 29.394
PCSat 30 Mar 16:33:47 16:39:17 82° 41° (NE) 16:44:44 145.827
HO-68 30 Mar 16:37:58 16:43:43 27° 37° (NE) 16:49:29 435.675
KAITUO 1B 30 Mar 16:39:28 16:42:23 22° 57° (ENE) 16:45:18 145.475/437.950
XW-2D 30 Mar 16:42:08 16:45:20 27° 59° (ENE) 16:48:34 145.860 - 145.880
ITUPSAT 1 30 Mar 16:42:24 16:47:09 66° 293° (WNW) 16:51:52 437.325
XW-2B 30 Mar 16:48:04 16:51:22 29° 61° (ENE) 16:54:40 145.730 - 145.750
KKS-1 30 Mar 16:50:59 16:54:57 29° 94° (E) 16:58:52 437.445
O/OREOS (USA 219) 30 Mar 16:51:58 16:56:21 48° 116° (ESE) 17:00:48 437.305
XW-2C 30 Mar 16:58:14 17:01:43 35° 63° (ENE) 17:05:11 145.795 - 145.815
AO-7 30 Mar 17:01:16 17:07:59 26° 273° (W) 17:14:43 .
SEEDS 30 Mar 17:03:13 17:03:29 10° 41° (NE) 17:03:44 437.485
CUBESAT XI-V 30 Mar 17:06:41 17:10:56 34° 95° (E) 17:15:13 437.345
XW-2A 30 Mar 17:07:37 17:08:40 11° 49° (NE) 17:09:42 145.665 - 145.685
CUTE-I 30 Mar 17:08:06 17:13:19 53° 62° (ENE) 17:18:33 437.470
STARS 30 Mar 17:15:25 17:19:07 25° 92° (E) 17:22:46 437.465
CUTE 1.7 + AOD 2 30 Mar 17:15:38 17:18:04 15° 48° (NE) 17:20:32 437.475
DOVE 4 30 Mar 17:29:59 17:34:57 83° 71° (ENE) 17:40:13 437.250
MOZHAYETS 4 30 Mar 17:40:34 17:44:53 42° 298° (WNW) 17:49:10
CUBEBUG 2 30 Mar 17:41:45 17:44:43 17° 47° (NE) 17:47:39 437.445
SO-50 30 Mar 17:44:09 17:48:35 47° 348° (NNW) 17:52:59 436.795
XW-2F 30 Mar 17:46:46 17:50:33 87° 72° (ENE) 17:54:20 145.980 - 146.000
LilacSat-2 30 Mar 17:55:56 17:59:45 74° 255° (WSW) 18:03:34 437.200
AO-73 30 Mar 17:58:25 17:59:22 11° 40° (NE) 18:00:20 145.935
NUDT-PHONESAT 30 Mar 17:59:32 18:03:16 83° 254° (WSW) 18:07:02 437.300
BEESAT 30 Mar 18:01:37 18:05:18 23° 311° (NW) 18:08:58 436.000
YUBILEINY 30 Mar 18:05:00 18:13:46 75° 72° (ENE) 18:22:30 435.215
AAUSAT CUBESAT 2 30 Mar 18:07:30 18:10:05 16° 49° (NE) 18:12:41 437.432
KAITUO 1B 30 Mar 18:12:25 18:16:08 63° 257° (WSW) 18:19:51 145.475/437.950
XW-2D 30 Mar 18:15:41 18:19:23 49° 260° (W) 18:23:05 145.860 - 145.880
PCSat 30 Mar 18:17:31 18:22:18 32° 242° (WSW) 18:27:03 145.827
ITUPSAT 1 30 Mar 18:21:01 18:24:16 18° 315° (NW) 18:27:30 437.325
XW-2B 30 Mar 18:21:49 18:25:28 45° 261° (W) 18:29:08 145.730 - 145.750
HO-68 30 Mar 18:23:24 18:30:28 67° 61° (ENE) 18:37:34 435.675
KKS-1 30 Mar 18:27:22 18:31:48 56° 294° (WNW) 18:36:12 437.445
O/OREOS (USA 219) 30 Mar 18:31:29 18:35:52 44° 318° (NW) 18:40:19 437.305
XW-2C 30 Mar 18:32:24 18:35:56 36° 263° (W) 18:39:28 145.795 - 145.815
UWE-3 30 Mar 18:34:18 18:38:00 25° 55° (NE) 18:41:39 435.000/436.395/437.385
SEEDS 30 Mar 18:34:18 18:38:08 37° 62° (ENE) 18:42:00 437.485
XW-2A 30 Mar 18:37:22 18:40:45 56° 69° (ENE) 18:44:09 145.665 - 145.685
CUBESAT XI-V 30 Mar 18:44:01 18:48:31 50° 295° (WNW) 18:53:02 437.345
RS-15 30 Mar 18:47:31 19:00:01 78° 24° (NNE) 19:12:13 29.354- 29.394
CUTE-I 30 Mar 18:48:31 18:53:35 40° 264° (W) 18:58:39 437.470
CUTE 1.7 + AOD 2 30 Mar 18:49:04 18:53:13 64° 69° (ENE) 18:57:24 437.475
Oscar 11 30 Mar 18:50:33 18:53:35 19° 51° (NE) 18:56:37 .
STARS 30 Mar 18:51:26 18:55:52 65° 292° (WNW) 19:00:14 437.465
ZACube-1 30 Mar 19:05:07 19:08:53 27° 57° (ENE) 19:12:35 437.345
DOVE 4 30 Mar 19:09:19 19:13:17 23° 274° (W) 19:17:26 437.250
CUBEBUG 2 30 Mar 19:15:56 19:20:36 62° 68° (ENE) 19:25:11 437.445
MOZHAYETS 4 30 Mar 19:19:07 19:21:01 13° 320° (NW) 19:22:56
M-CUBED/EXP-1 PRIME 30 Mar 19:20:26 19:24:46 37° 104° (ESE) 19:29:07 437.505
XW-2F 30 Mar 19:23:00 19:25:16 15° 273° (W) 19:27:31 145.980 - 146.000
SO-50 30 Mar 19:25:18 19:29:44 47° 13° (NNE) 19:34:07 436.795
AO-73 30 Mar 19:30:29 19:34:34 37° 62° (ENE) 19:38:36 145.935
LilacSat-2 30 Mar 19:33:10 19:34:45 12° 276° (W) 19:36:21 437.200
NUDT-PHONESAT 30 Mar 19:35:58 19:37:50 13° 275° (W) 19:39:42 437.300
AAUSAT CUBESAT 2 30 Mar 19:40:50 19:44:55 72° 71° (ENE) 19:49:03 437.432
STRAND 1 30 Mar 19:42:10 19:46:47 33° 94° (E) 19:51:21 437.568
KAITUO 1B 30 Mar 19:50:23 19:50:57 10° 278° (W) 19:51:30 145.475/437.950
YUBILEINY 30 Mar 20:02:15 20:10:05 39° 278° (W) 20:17:55 435.215
KKS-1 30 Mar 20:04:55 20:07:34 16° 316° (NW) 20:10:12 437.445
AO-85 30 Mar 20:06:08 20:09:00 18° 121° (ESE) 20:11:48 145.980
UWE-3 30 Mar 20:09:29 20:14:06 77° 255° (WSW) 20:18:38 435.000/436.395/437.385
SEEDS 30 Mar 20:09:55 20:13:51 40° 263° (W) 20:17:48 437.485
XW-2A 30 Mar 20:11:15 20:13:50 19° 269° (W) 20:16:25 145.665 - 145.685
HO-68 30 Mar 20:11:57 20:18:39 42° 264° (W) 20:25:24 435.675
O/OREOS (USA 219) 30 Mar 20:12:58 20:16:25 20° 343° (NNW) 20:19:52 437.305
DELFI C3 30 Mar 20:21:39 20:25:10 32° 61° (ENE) 20:28:44 145.870
CUBESAT XI-V 30 Mar 20:22:31 20:25:01 14° 317° (NW) 20:27:30 437.345
Oscar 11 30 Mar 20:24:51 20:29:10 82° 70° (ENE) 20:33:30 .
CUTE 1.7 + AOD 2 30 Mar 20:26:03 20:29:27 23° 270° (W) 20:32:52 437.475
STARS 30 Mar 20:28:39 20:31:30 17° 314° (NW) 20:34:20 437.465
Tancredo 1 30 Mar 20:33:59 20:35:05 11° 153° (SSE) 20:36:11 437.200
LO-87 30 Mar 20:39:13 20:40:19 11° 47° (NE) 20:41:24 145.935 - 145.965
ZACube-1 30 Mar 20:40:27 20:44:55 65° 257° (WSW) 20:49:18 437.345
CUBEBUG 2 30 Mar 20:53:29 20:57:33 28° 268° (W) 21:01:34 437.445
ISS 30 Mar 20:53:39 20:55:23 14° 156° (SSE) 20:57:06 437.550
M-CUBED/EXP-1 PRIME 30 Mar 20:54:51 20:59:19 52° 303° (WNW) 21:03:53 437.505
RS-15 30 Mar 21:00:27 21:12:32 63° 234° (SW) 21:24:11 29.354- 29.394
SO-50 30 Mar 21:05:59 21:10:33 84° 216° (SW) 21:15:04 436.795
AO-73 30 Mar 21:06:32 21:10:48 44° 262° (W) 21:15:01 145.935
AAUSAT CUBESAT 2 30 Mar 21:17:47 21:20:52 20° 271° (W) 21:23:59 437.432
STRAND 1 30 Mar 21:21:14 21:26:17 60° 296° (WNW) 21:31:19 437.568
FO-29 30 Mar 21:21:49 21:22:50 10° 70° (ENE) 21:23:48 435.910
BEESAT 3 30 Mar 21:27:41 21:29:57 15° 117° (ESE) 21:32:14 437.485
AO-85 30 Mar 21:44:41 21:48:51 72° 141° (SE) 21:52:50 145.980
UWE-3 30 Mar 21:48:29 21:51:18 16° 276° (W) 21:54:06 435.000/436.395/437.385
ESTCUBE 1 30 Mar 21:49:01 21:52:52 29° 56° (NE) 21:56:44 437.505/2401.250
BEESAT 2 30 Mar 21:54:02 21:55:40 12° 114° (ESE) 21:57:20 435.950
O/OREOS (USA 219) 30 Mar 21:54:17 21:57:28 18° 8° (N) 22:00:39 437.305
DELFI C3 30 Mar 21:56:10 21:59:55 42° 262° (W) 22:03:43 145.870
YUBILEINY 30 Mar 22:01:27 22:04:17 12° 304° (NW) 22:07:06 435.215
Oscar 11 30 Mar 22:02:45 22:05:52 19° 272° (W) 22:09:00 .
HO-68 30 Mar 22:06:37 22:08:35 11° 288° (WNW) 22:10:33 435.675
DX 1 30 Mar 22:06:54 22:08:44 12° 40° (NE) 22:10:35 434.975-435.025
Tancredo 1 30 Mar 22:07:58 22:10:22 20° 173° (S) 22:12:46 437.200
PRISM 30 Mar 22:09:00 22:12:51 34° 97° (E) 22:16:41 437.425
LO-87 30 Mar 22:09:28 22:12:59 50° 68° (ENE) 22:16:34 145.935 - 145.965
ZACube-1 30 Mar 22:19:57 22:22:03 13° 278° (W) 22:24:09 437.345
ISS 30 Mar 22:28:29 22:31:04 21° 176° (S) 22:33:38 437.550
M-CUBED/EXP-1 PRIME 30 Mar 22:30:00 22:32:58 17° 324° (NW) 22:35:59 437.505
TIGRISAT 30 Mar 22:32:13 22:36:15 33° 94° (E) 22:40:12 435.000
UKube-1 30 Mar 22:37:02 22:39:29 15° 45° (NE) 22:41:57 .
VELOX 1 30 Mar 22:41:54 22:45:48 31° 57° (ENE) 22:49:44 145.980
50 SAT 30 Mar 22:43:13 22:45:36 18° 54° (NE) 22:48:00 437.505
UNISAT 6 30 Mar 22:43:42 22:47:58 42° 98° (E) 22:52:07 437.425
SO-50 30 Mar 22:46:53 22:50:32 24° 237° (WSW) 22:54:09 436.795
SPROUT 30 Mar 22:52:14 22:56:03 31° 59° (ENE) 22:59:53 437.525
STRAND 1 30 Mar 23:01:12 23:04:38 18° 317° (NW) 23:08:04 437.568
BEESAT 3 30 Mar 23:02:55 23:06:51 61° 138° (SE) 23:10:50 437.485
FO-29 30 Mar 23:04:01 23:09:56 44° 96° (E) 23:15:12 435.910
RS-15 30 Mar 23:13:33 23:22:32 25° 261° (W) 23:31:21 29.354- 29.394
ESTCUBE 1 30 Mar 23:25:00 23:29:27 62° 257° (WSW) 23:33:56 437.505/2401.250
AO-85 30 Mar 23:25:31 23:29:28 45° 343° (NNW) 23:33:17 145.980
BEESAT 2 30 Mar 23:28:43 23:32:37 52° 135° (SE) 23:36:34 435.950
O/OREOS (USA 219) 30 Mar 23:34:07 23:38:15 31° 33° (NNE) 23:42:23 437.305
DX 1 30 Mar 23:39:50 23:43:58 43° 62° (ENE) 23:48:09 434.975-435.025
Tancredo 1 30 Mar 23:43:31 23:45:46 18° 193° (SSW) 23:48:01 437.200
LO-87 30 Mar 23:43:44 23:46:43 23° 268° (W) 23:49:43 145.935 - 145.965
PRISM 30 Mar 23:44:17 23:48:15 43° 297° (WNW) 23:52:12 437.425
NANOSAT C BR1 30 Mar 23:46:32 23:49:43 20° 89° (E) 23:52:52 145.865
EO-79 30 Mar 23:53:53 23:57:23 24° 91° (E) 00:00:51 145.935-145.965
AIST 2D 30 Mar 23:59:15 00:02:34 37° 98° (E) 00:05:50 435.315
ISS 31 Mar 00:04:33 00:06:49 17° 196° (SSW) 00:09:05 437.550
TIGRISAT 31 Mar 00:08:51 00:13:09 48° 296° (WNW) 00:17:19 435.000
UKube-1 31 Mar 00:10:30 00:14:45 57° 66° (ENE) 00:19:01 .
50 SAT 31 Mar 00:14:47 00:18:14 76° 254° (WSW) 00:21:45 437.505
VELOX 1 31 Mar 00:17:43 00:22:05 56° 258° (WSW) 00:26:30 145.980
UNISAT 6 31 Mar 00:20:33 00:24:42 38° 299° (WNW) 00:28:44 437.425
POLYITAN 1 31 Mar 00:23:13 00:27:15 40° 98° (E) 00:31:14 437.675
BEESAT 31 Mar 00:25:33 00:28:45 18° 45° (NE) 00:31:56 436.000
SPROUT 31 Mar 00:27:37 00:31:50 52° 259° (W) 00:36:05 437.525
QB50P2 31 Mar 00:28:03 00:32:11 46° 99° (E) 00:36:16 145.880/145.840
BUGSAT 1 31 Mar 00:31:06 00:34:08 19° 88° (E) 00:37:07 437.445
DUCHIFAT 1 31 Mar 00:33:05 00:37:08 42° 98° (E) 00:41:08 145.980
BEESAT 3 31 Mar 00:40:43 00:44:36 48° 340° (NNW) 00:48:33 437.485
ITUPSAT 1 31 Mar 00:44:16 00:47:55 22° 49° (NE) 00:51:34 437.325
FO-29 31 Mar 00:49:11 00:55:14 51° 301° (WNW) 01:00:37 435.910
Oscar 19 31 Mar 00:55:29 00:58:32 15° 83° (E) 01:01:35 437.125/150
ESTCUBE 1 31 Mar 01:05:15 01:07:12 13° 278° (W) 01:09:09 437.505/2401.250
BEESAT 2 31 Mar 01:06:30 01:10:27 53° 337° (NNW) 01:14:28 435.950
AO-85 31 Mar 01:06:44 01:10:30 38° 7° (N) 01:14:13 145.980
O/OREOS (USA 219) 31 Mar 01:13:31 01:18:10 81° 238° (WSW) 01:22:48 437.305
DX 1 31 Mar 01:16:12 01:20:16 37° 263° (W) 01:24:22 434.975-435.025
PRISM 31 Mar 01:21:08 01:22:37 12° 318° (NW) 01:24:05 437.425
NANOSAT C BR1 31 Mar 01:21:41 01:25:57 76° 289° (WNW) 01:30:10 145.865
EO-79 31 Mar 01:29:18 01:33:32 62° 292° (WNW) 01:37:43 145.935-145.965
AIST 2D 31 Mar 01:32:39 01:35:44 29° 298° (WNW) 01:38:48 435.315
MOZHAYETS 4 31 Mar 01:38:10 01:41:53 25° 54° (NE) 01:45:36
Gurwin Techsat 1B 31 Mar 01:46:08 01:50:21 23° 88° (E) 01:54:31 435.225
TIGRISAT 31 Mar 01:46:47 01:48:54 13° 318° (NW) 01:51:00 435.000
UKube-1 31 Mar 01:47:22 01:51:05 28° 266° (W) 01:54:50 .
50 SAT 31 Mar 01:50:50 01:51:56 11° 275° (W) 01:53:03 437.505
VELOX 1 31 Mar 01:58:11 01:59:33 11° 279° (W) 02:00:57 145.980
UNISAT 6 31 Mar 01:58:58 02:00:20 11° 321° (NW) 02:01:39 437.425
POLYITAN 1 31 Mar 01:59:06 02:03:04 38° 299° (WNW) 02:06:58 437.675
BEESAT 31 Mar 02:01:03 02:05:47 64° 67° (ENE) 02:10:32 436.000
QB50P2 31 Mar 02:04:03 02:07:54 34° 300° (WNW) 02:11:43 145.880/145.840
BUGSAT 1 31 Mar 02:05:49 02:10:02 79° 289° (WNW) 02:14:11 437.445
SPROUT 31 Mar 02:08:33 02:08:47 10° 280° (W) 02:09:02 437.525
DUCHIFAT 1 31 Mar 02:08:54 02:12:48 36° 299° (WNW) 02:16:40 145.980
BEESAT 3 31 Mar 02:19:05 02:22:51 37° 4° (N) 02:26:39 437.485
ITUPSAT 1 31 Mar 02:20:24 02:25:12 84° 72° (ENE) 02:30:02 437.325
KKS-1 31 Mar 02:22:53 02:26:09 20° 49° (NE) 02:29:26 437.445
Oscar 19 31 Mar 02:33:42 02:38:53 66° 104° (ESE) 02:44:03 437.125/150
FO-29 31 Mar 02:34:47 02:39:01 19° 326° (NW) 02:42:58 435.910
CUBESAT XI-V 31 Mar 02:43:06 02:46:37 22° 51° (NE) 02:50:09 437.345
BEESAT 2 31 Mar 02:45:03 02:48:51 37° 1° (N) 02:52:40 435.950
STARS 31 Mar 02:46:18 02:49:14 18° 47° (NE) 02:52:11 437.465
AO-85 31 Mar 02:47:23 02:51:21 75° 32° (NNE) 02:55:17 145.980
ITAMSAT 1 31 Mar 02:52:26 02:55:49 17° 84° (E) 02:59:09 435.822/435.867
O/OREOS (USA 219) 31 Mar 02:53:48 02:56:57 18° 257° (WSW) 03:00:04 437.305
AO-7 31 Mar 02:56:46 03:02:52 22° 83° (E) 03:08:55 .
NANOSAT C BR1 31 Mar 02:58:14 03:01:04 18° 311° (NW) 03:03:53 145.865
EO-79 31 Mar 03:06:04 03:08:35 16° 313° (NW) 03:11:05 145.935-145.965
M-CUBED/EXP-1 PRIME 31 Mar 03:09:11 03:11:18 14° 30° (NNE) 03:13:28 437.505
MOZHAYETS 4 31 Mar 03:14:05 03:18:41 77° 255° (WSW) 03:23:17
Gurwin Techsat 1B 31 Mar 03:25:38 03:31:01 87° 288° (WNW) 03:36:21 435.225
POLYITAN 1 31 Mar 03:36:50 03:37:50 11° 320° (NW) 03:38:49 437.675
BEESAT 31 Mar 03:39:49 03:43:57 28° 267° (W) 03:48:05 436.000
BUGSAT 1 31 Mar 03:41:57 03:44:50 18° 310° (NW) 03:47:41 437.445
DUCHIFAT 1 31 Mar 03:46:47 03:47:26 10° 321° (NW) 03:48:05 145.980
STRAND 1 31 Mar 03:54:37 03:55:52 11° 30° (NNE) 03:57:08 437.568
BEESAT 3 31 Mar 03:57:00 04:01:01 61° 26° (NNE) 04:05:02 437.485
KKS-1 31 Mar 03:57:40 04:02:09 81° 70° (ENE) 04:06:41 437.445
ITUPSAT 1 31 Mar 04:00:01 04:03:40 21° 271° (W) 04:07:20 437.325
Oscar 19 31 Mar 04:13:23 04:17:58 33° 305° (NW) 04:22:33 437.125/150
CUBESAT XI-V 31 Mar 04:18:53 04:23:29 90° 74° (ENE) 04:28:09 437.345
FO-29 31 Mar 04:20:20 04:21:48 11° 351° (N) 04:23:14 435.910
STARS 31 Mar 04:20:29 04:24:55 68° 68° (ENE) 04:29:21 437.465
BEESAT 2 31 Mar 04:23:12 04:27:13 55° 23° (NNE) 04:31:14 435.950
AO-85 31 Mar 04:28:03 04:31:27 29° 233° (SW) 04:34:53 145.980
ITAMSAT 1 31 Mar 04:31:00 04:36:14 72° 106° (ESE) 04:41:26 435.822/435.867
M-CUBED/EXP-1 PRIME 31 Mar 04:40:54 04:44:42 38° 52° (NE) 04:48:48 437.505
AO-7 31 Mar 04:49:04 04:57:22 66° 107° (ESE) 05:05:37 .
MOZHAYETS 4 31 Mar 04:53:49 04:56:38 16° 276° (W) 04:59:28
Gurwin Techsat 1B 31 Mar 05:06:07 05:10:25 26° 311° (NW) 05:14:43 435.225
DOVE 4 31 Mar 05:20:09 05:23:23 16° 80° (E) 05:26:35 437.250
YUBILEINY 31 Mar 05:25:18 05:30:53 19° 66° (ENE) 05:36:27 435.215
STRAND 1 31 Mar 05:29:15 05:33:38 29° 52° (NE) 05:38:02 437.568
BEESAT 3 31 Mar 05:34:45 05:38:34 41° 228° (SW) 05:42:21 437.485
KKS-1 31 Mar 05:35:54 05:39:17 21° 271° (W) 05:42:41 437.445
XW-2D 31 Mar 05:40:40 05:41:42 11° 83° (E) 05:42:44 145.860 - 145.880
XW-2B 31 Mar 05:46:21 05:47:51 12° 84° (E) 05:49:20 145.730 - 145.750
Oscar 19 31 Mar 05:54:06 05:55:58 12° 328° (NNW) 05:57:50 437.125/150
XW-2C 31 Mar 05:56:15 05:58:25 15° 86° (E) 06:00:35 145.795 - 145.815
STARS 31 Mar 05:58:04 06:01:41 24° 269° (W) 06:05:20 437.465
CUBESAT XI-V 31 Mar 05:58:18 06:01:33 19° 274° (W) 06:04:50 437.345
BEESAT 2 31 Mar 06:01:06 06:05:02 49° 226° (SW) 06:08:57 435.950
FO-29 31 Mar 06:01:45 06:04:17 12° 17° (NNE) 06:06:44 435.910
ITAMSAT 1 31 Mar 06:10:52 06:15:24 31° 307° (NW) 06:19:54 435.822/435.867
M-CUBED/EXP-1 PRIME 31 Mar 06:15:14 06:19:07 45° 254° (WSW) 06:23:20 437.505
AO-7 31 Mar 06:42:08 06:50:03 51° 311° (NW) 06:57:57 .
XW-2F 31 Mar 06:43:54 06:47:22 34° 97° (E) 06:50:49 145.980 - 146.000
NO-84 31 Mar 06:47:12 06:48:55 15° 150° (SSE) 06:50:38 435.350 FM
Gurwin Techsat 1B 31 Mar 06:48:12 06:48:46 10° 335° (NNW) 06:49:21 435.225
LilacSat-2 31 Mar 06:54:06 06:57:46 45° 99° (E) 07:01:24 437.200
NUDT-PHONESAT 31 Mar 06:54:48 06:58:16 37° 98° (E) 07:01:43 437.300
CUTE-I 31 Mar 06:55:18 07:00:26 43° 98° (E) 07:05:31 437.470
DOVE 4 31 Mar 06:56:46 07:02:06 65° 102° (ESE) 07:07:20 437.250
STRAND 1 31 Mar 07:07:19 07:12:28 76° 254° (WSW) 07:17:39 437.568
KAITUO 1B 31 Mar 07:08:19 07:11:58 50° 100° (E) 07:15:33 145.475/437.950
XW-2D 31 Mar 07:12:55 07:16:41 67° 103° (ESE) 07:20:25 145.860 - 145.880
YUBILEINY 31 Mar 07:17:23 07:25:52 59° 92° (E) 07:34:21 435.215
XW-2B 31 Mar 07:18:59 07:22:46 74° 104° (ESE) 07:26:31 145.730 - 145.750
XW-2A 31 Mar 07:23:30 07:25:50 17° 90° (E) 07:28:08 145.665 - 145.685
HO-68 31 Mar 07:28:26 07:34:34 29° 89° (E) 07:40:41 435.675
XW-2C 31 Mar 07:29:25 07:33:13 89° 288° (WNW) 07:36:59 145.795 - 145.815
PRISM 31 Mar 07:33:18 07:36:11 19° 50° (NE) 07:39:07 437.425
BEESAT 2 31 Mar 07:40:33 07:41:57 12° 246° (WSW) 07:43:21 435.950
FO-29 31 Mar 07:41:47 07:47:20 24° 42° (NE) 07:52:26 435.910
SEEDS 31 Mar 07:44:18 07:47:27 20° 89° (E) 07:50:35 437.485
UWE-3 31 Mar 07:51:10 07:53:06 13° 81° (E) 07:55:00 435.000/436.395/437.385
ITAMSAT 1 31 Mar 07:51:44 07:53:28 12° 330° (NNW) 07:55:12 435.822/435.867
CUTE 1.7 + AOD 2 31 Mar 08:00:14 08:04:09 35° 96° (E) 08:08:03 437.475
TIGRISAT 31 Mar 08:04:21 08:07:49 21° 51° (NE) 08:11:15 435.000
UNISAT 6 31 Mar 08:15:38 08:19:25 26° 55° (NE) 08:23:11 437.425
XW-2F 31 Mar 08:18:06 08:21:33 35° 297° (WNW) 08:24:59 145.980 - 146.000
ZACube-1 31 Mar 08:20:24 08:22:43 14° 84° (E) 08:24:59 437.345
NO-84 31 Mar 08:23:14 08:25:50 31° 170° (S) 08:28:28 435.350 FM
LilacSat-2 31 Mar 08:28:39 08:31:56 28° 300° (WNW) 08:35:13 437.200
NUDT-PHONESAT 31 Mar 08:28:51 08:32:12 32° 298° (WNW) 08:35:30 437.300
CUBEBUG 2 31 Mar 08:34:03 08:38:13 37° 96° (E) 08:42:14 437.445
DOVE 4 31 Mar 08:34:47 08:39:31 34° 303° (WNW) 08:44:14 437.250
AO-7 31 Mar 08:34:48 08:41:17 27° 337° (NNW) 08:47:46 .
CUTE-I 31 Mar 08:35:27 08:40:37 49° 299° (WNW) 08:45:44 437.470
KAITUO 1B 31 Mar 08:42:42 08:45:49 26° 301° (WNW) 08:48:55 145.475/437.950
AO-73 31 Mar 08:45:16 08:48:28 20° 88° (E) 08:51:36 145.935
XW-2D 31 Mar 08:47:40 08:50:34 21° 304° (NW) 08:53:27 145.860 - 145.880
AAUSAT CUBESAT 2 31 Mar 08:48:55 08:52:49 37° 97° (E) 08:56:42 437.432
STRAND 1 31 Mar 08:49:06 08:52:33 18° 275° (W) 08:56:00 437.568
XW-2B 31 Mar 08:53:50 08:56:36 20° 305° (NW) 08:59:23 145.730 - 145.750
XW-2A 31 Mar 08:55:36 08:58:59 63° 290° (WNW) 09:02:19 145.665 - 145.685
XW-2C 31 Mar 09:04:28 09:06:56 17° 307° (NW) 09:09:24 145.795 - 145.815
PRISM 31 Mar 09:06:52 09:10:58 85° 72° (ENE) 09:15:08 437.425
PCSat 31 Mar 09:07:46 09:12:35 34° 119° (ESE) 09:17:26 145.827
AIST 2D 31 Mar 09:11:40 09:13:06 12° 50° (NE) 09:14:32 435.315
NANOSAT C BR1 31 Mar 09:14:16 09:16:12 13° 43° (NE) 09:18:07 145.865
YUBILEINY 31 Mar 09:14:28 09:22:58 52° 298° (WNW) 09:31:29 435.215
HO-68 31 Mar 09:15:59 09:23:13 89° 301° (WNW) 09:30:25 435.675
SEEDS 31 Mar 09:19:26 09:23:38 75° 290° (WNW) 09:27:50 437.485
EO-79 31 Mar 09:21:28 09:23:53 15° 46° (NE) 09:26:18 145.935-145.965
FO-29 31 Mar 09:24:05 09:31:27 63° 64° (ENE) 09:38:04 435.910
DELFI C3 31 Mar 09:24:27 09:26:50 15° 86° (E) 09:29:14 145.870
UWE-3 31 Mar 09:26:08 09:30:29 67° 103° (ESE) 09:34:41 435.000/436.395/437.385
CUTE 1.7 + AOD 2 31 Mar 09:36:06 09:40:06 42° 296° (WNW) 09:44:06 437.475
Oscar 11 31 Mar 09:38:39 09:42:50 46° 99° (E) 09:47:00 .
TIGRISAT 31 Mar 09:39:20 09:44:00 85° 70° (ENE) 09:48:36 435.000
POLYITAN 1 31 Mar 09:50:01 09:53:18 22° 53° (NE) 09:56:35 437.675
UNISAT 6 31 Mar 09:51:07 09:55:47 76° 254° (WSW) 10:00:23 437.425
QB50P2 31 Mar 09:54:41 09:58:08 24° 55° (NE) 10:01:35 145.880/145.840
ZACube-1 31 Mar 09:55:31 09:59:48 76° 105° (ESE) 10:03:59 437.345
BUGSAT 1 31 Mar 09:56:53 09:58:34 12° 42° (NE) 10:00:16 437.445
DUCHIFAT 1 31 Mar 09:59:11 10:02:29 22° 53° (NE) 10:05:46 145.980
NO-84 31 Mar 10:00:19 10:02:56 31° 191° (S) 10:05:39 435.350 FM
CUBEBUG 2 31 Mar 10:10:43 10:14:56 42° 297° (WNW) 10:19:00 437.445
DOVE 4 31 Mar 10:13:48 10:15:52 12° 325° (NW) 10:17:55 437.250
CUTE-I 31 Mar 10:16:21 10:19:37 17° 322° (NW) 10:22:54 437.470
AO-73 31 Mar 10:20:58 10:25:14 73° 289° (WNW) 10:29:22 145.935
AAUSAT CUBESAT 2 31 Mar 10:24:28 10:28:20 39° 297° (WNW) 10:32:13 437.432
AO-7 31 Mar 10:25:52 10:31:41 22° 4° (N) 10:37:31 .
XW-2A 31 Mar 10:29:50 10:31:06 12° 311° (NW) 10:32:23 145.665 - 145.685
AIST 2D 31 Mar 10:42:11 10:45:41 62° 70° (ENE) 10:49:11 435.315
PRISM 31 Mar 10:44:04 10:46:50 17° 272° (W) 10:49:38 437.425
Oscar 19 31 Mar 10:44:21 10:47:35 17° 41° (NE) 10:50:49 437.125/150
NANOSAT C BR1 31 Mar 10:46:56 10:51:03 48° 65° (ENE) 10:55:10 145.865
PCSat 31 Mar 10:50:12 10:55:39 80° 322° (NW) 11:01:09 145.827
EO-79 31 Mar 10:54:41 10:58:54 58° 67° (ENE) 11:03:07 145.935-145.965
SEEDS 31 Mar 10:56:00 10:58:44 17° 310° (NW) 11:01:28 437.485
DELFI C3 31 Mar 10:58:14 11:02:16 87° 107° (ESE) 11:06:17 145.870
LO-87 31 Mar 11:01:10 11:03:50 19° 90° (E) 11:06:28 145.935 - 145.965
UWE-3 31 Mar 11:03:03 11:06:38 26° 305° (NW) 11:10:09 435.000/436.395/437.385
HO-68 31 Mar 11:04:05 11:10:22 34° 316° (NW) 11:16:38 435.675
ESTCUBE 1 31 Mar 11:08:38 11:11:31 16° 85° (E) 11:14:23 437.505/2401.250
FO-29 31 Mar 11:09:36 11:16:46 45° 264° (W) 11:23:17 435.910
CUTE 1.7 + AOD 2 31 Mar 11:13:38 11:14:59 11° 318° (NW) 11:16:21 437.475
Oscar 11 31 Mar 11:15:01 11:18:55 34° 300° (WNW) 11:22:48 .
YUBILEINY 31 Mar 11:15:44 11:22:16 23° 327° (NNW) 11:28:50 435.215
TIGRISAT 31 Mar 11:17:50 11:21:17 20° 272° (W) 11:24:41 435.000
POLYITAN 1 31 Mar 11:24:22 11:28:40 84° 253° (WSW) 11:32:59 437.675
BUGSAT 1 31 Mar 11:28:58 11:33:01 44° 64° (ENE) 11:37:05 437.445
QB50P2 31 Mar 11:29:18 11:33:35 73° 255° (WSW) 11:37:54 145.880/145.840
UNISAT 6 31 Mar 11:30:26 11:33:16 16° 276° (W) 11:36:05 437.425
ZACube-1 31 Mar 11:32:22 11:35:42 23° 306° (NW) 11:38:59 437.345
DUCHIFAT 1 31 Mar 11:33:28 11:37:44 82° 254° (WSW) 11:42:02 145.980
RS-15 31 Mar 11:35:23 11:45:42 35° 107° (ESE) 11:56:11 29.354- 29.394
NO-84 31 Mar 11:38:07 11:39:52 15° 210° (SSW) 11:41:40 435.350 FM
Gurwin Techsat 1B 31 Mar 11:38:13 11:42:23 24° 47° (NE) 11:46:34 435.225
CUBEBUG 2 31 Mar 11:48:51 11:50:31 12° 319° (NW) 11:52:10 437.445
AO-73 31 Mar 11:58:05 12:00:50 17° 311° (NW) 12:03:32 145.935
VELOX 1 31 Mar 11:58:55 12:01:46 16° 86° (E) 12:04:37 145.980
AAUSAT CUBESAT 2 31 Mar 12:02:01 12:02:49 10° 318° (NW) 12:03:38 437.432
SPROUT 31 Mar 12:04:33 12:07:18 16° 86° (E) 12:09:59 437.525
AO-7 31 Mar 12:15:18 12:22:16 31° 31° (NNE) 12:29:13 .
AIST 2D 31 Mar 12:16:44 12:19:17 18° 270° (W) 12:21:49 435.315
Oscar 19 31 Mar 12:21:00 12:25:59 53° 63° (ENE) 12:31:00 437.125/150
NANOSAT C BR1 31 Mar 12:23:07 12:26:57 32° 265° (W) 12:30:48 145.865
EO-79 31 Mar 12:31:21 12:34:59 26° 268° (W) 12:38:37 145.935-145.965
DELFI C3 31 Mar 12:33:45 12:36:37 19° 307° (NW) 12:39:28 145.870
LO-87 31 Mar 12:34:01 12:37:41 66° 290° (WNW) 12:41:18 145.935 - 145.965
PCSat 31 Mar 12:34:33 12:39:42 41° 346° (NNW) 12:44:53 145.827
ITAMSAT 1 31 Mar 12:41:59 12:45:38 19° 43° (NE) 12:49:16 435.822/435.867
ESTCUBE 1 31 Mar 12:44:31 12:49:04 81° 107° (ESE) 12:53:36 437.505/2401.250
HO-68 31 Mar 12:51:50 12:56:16 18° 341° (NNW) 13:00:42 435.675
DX 1 31 Mar 12:54:48 12:58:15 22° 90° (E) 13:01:41 434.975-435.025
FO-29 31 Mar 13:00:28 13:03:32 13° 286° (WNW) 13:06:31 435.910
POLYITAN 1 31 Mar 13:02:28 13:05:09 16° 274° (W) 13:07:50 437.675
50 SAT 31 Mar 13:02:50 13:06:00 30° 96° (E) 13:09:10 437.505
BUGSAT 1 31 Mar 13:04:37 13:08:30 34° 264° (W) 13:12:25 437.445
QB50P2 31 Mar 13:07:53 13:10:11 14° 276° (W) 13:12:28 145.880/145.840
DUCHIFAT 1 31 Mar 13:11:32 13:14:07 16° 274° (W) 13:16:42 145.980
SO-50 31 Mar 13:11:46 13:13:18 12° 112° (ESE) 13:14:49 436.795
Gurwin Techsat 1B 31 Mar 13:16:24 13:21:43 81° 69° (ENE) 13:27:06 435.225
YUBILEINY 31 Mar 13:18:37 13:23:24 15° 360° (N) 13:28:11 435.215
UKube-1 31 Mar 13:24:11 13:27:57 28° 94° (E) 13:31:41 .
VELOX 1 31 Mar 13:34:27 13:38:58 81° 107° (ESE) 13:43:27 145.980
SPROUT 31 Mar 13:39:34 13:43:54 85° 107° (ESE) 13:48:12 437.525
RS-15 31 Mar 13:44:24 13:56:34 77° 135° (SE) 14:08:55 29.354- 29.394
Oscar 19 31 Mar 14:00:48 14:05:32 37° 264° (W) 14:10:19 437.125/150
LO-87 31 Mar 14:08:40 14:10:30 13° 310° (NW) 14:12:19 145.935 - 145.965
